Wetterdaten: Woche 11.02.13 - 17.02.13 (KW7)
Datum Zeit Temp. Aussen +5cm Bl.Temp 1 Feuchte Auss Luftdruck Regen Sonnenschein Regendauer UV Solar Windben
11.02.2013 00:00 -2,1 C -3,5 C 0,0 C 74 % 1002,7 hPa 0,0 l/m 0,00 h 0,00 h 0,0 UV-I 0 W/m 21,0 km/h (4 Bft)
11.02.2013 01:00 -2,3 C -3,8 C 0,0 C 73 % 1002,1 hPa 0,0 l/m 0,00 h 0,00 h 0,0 UV-I 0 W/m 22,3 km/h (4 Bft)
11.02.2013 02:00 -2,5 C -3,8 C 0,0 C 73 % 1001,4 hPa 0,0 l/m 0,00 h 0,00 h 0,0 UV-I 0 W/m 19,4 km/h (3 Bft)
11.02.2013 03:00 -2,5 C -3,8 C 0,0 C 73 % 1000,9 hPa 0,0 l/m 0,00 h 0,00 h 0,0 UV-I 0 W/m 19,0 km/h (3 Bft)
11.02.2013 04:00 -2,6 C -3,8 C 0,0 C 75 % 1000,6 hPa 0,0 l/m 0,00 h 0,00 h 0,0 UV-I 0 W/m 16,4 km/h (3 Bft)
11.02.2013 05:00 -2,0 C -2,9 C 0,0 C 73 % 1000,4 hPa 0,0 l/m 0,00 h 0,00 h 0,0 UV-I 0 W/m 22,7 km/h (4 Bft)
11.02.2013 06:00 -1,7 C -2,7 C 0,0 C 70 % 1000,3 hPa 0,0 l/m 0,00 h 0,00 h 0,0 UV-I 0 W/m 21,5 km/h (4 Bft)
11.02.2013 07:00 -1,5 C -2,7 C 0,0 C 70 % 1000,5 hPa 0,0 l/m 0,00 h 0,00 h 0,0 UV-I 0 W/m 19,6 km/h (3 Bft)
11.02.2013 08:00 -1,3 C -2,4 C 0,0 C 70 % 1000,8 hPa 0,0 l/m 0,00 h 0,00 h 0,0 UV-I 12 W/m 15,3 km/h (3 Bft)
11.02.2013 09:00 -1,1 C -1,9 C 0,0 C 69 % 1000,9 hPa 0,0 l/m 0,00 h 0,00 h 0,0 UV-I 54 W/m 19,0 km/h (3 Bft)
11.02.2013 10:00 -0,3 C -0,7 C 0,0 C 67 % 1001,2 hPa 0,0 l/m 0,10 h 0,00 h 0,0 UV-I 154 W/m 20,0 km/h (4 Bft)
11.02.2013 11:00 0,5 C 0,2 C 0,0 C 63 % 1001,5 hPa 0,0 l/m 0,07 h 0,00 h 0,0 UV-I 204 W/m 22,7 km/h (4 Bft)
11.02.2013 12:00 1,1 C 1,0 C 0,0 C 61 % 1001,7 hPa 0,0 l/m 0,67 h 0,00 h 0,0 UV-I 244 W/m 23,3 km/h (4 Bft)
11.02.2013 13:00 1,8 C 1,7 C 0,0 C 60 % 1002,0 hPa 0,0 l/m 0,43 h 0,00 h 0,0 UV-I 229 W/m 17,7 km/h (3 Bft)
11.02.2013 14:00 2,0 C 1,3 C 0,0 C 60 % 1001,9 hPa 0,0 l/m 0,00 h 0,00 h 0,0 UV-I 156 W/m 16,9 km/h (3 Bft)
11.02.2013 15:00 1,8 C 0,8 C 0,0 C 59 % 1002,1 hPa 0,0 l/m 0,00 h 0,00 h 0,0 UV-I 64 W/m 16,7 km/h (3 Bft)
11.02.2013 16:00 1,4 C 0,1 C 0,0 C 66 % 1002,4 hPa 0,0 l/m 0,00 h 0,00 h 0,0 UV-I 24 W/m 7,4 km/h (2 Bft)
11.02.2013 17:00 0,9 C -0,4 C 0,0 C 70 % 1003,0 hPa 0,0 l/m 0,00 h 0,00 h 0,0 UV-I 9 W/m 6,1 km/h (2 Bft)
11.02.2013 18:00 0,6 C -0,8 C 0,0 C 72 % 1003,6 hPa 0,0 l/m 0,00 h 0,00 h 0,0 UV-I 0 W/m 4,1 km/h (1 Bft)
11.02.2013 19:00 0,2 C -1,0 C 0,0 C 73 % 1004,3 hPa 0,0 l/m 0,00 h 0,00 h 0,0 UV-I 0 W/m 5,2 km/h (1 Bft)
11.02.2013 20:00 -0,0 C -1,4 C 0,0 C 73 % 1004,9 hPa 0,0 l/m 0,00 h 0,00 h 0,0 UV-I 0 W/m 6,6 km/h (2 Bft)
11.02.2013 21:00 -0,7 C -2,5 C 0,0 C 76 % 1005,7 hPa 0,0 l/m 0,00 h 0,00 h 0,0 UV-I 0 W/m 2,6 km/h (1 Bft)
11.02.2013 22:00 -1,4 C -2,9 C 0,0 C 78 % 1006,2 hPa 0,0 l/m 0,00 h 0,00 h 0,0 UV-I 0 W/m 5,1 km/h (1 Bft)
11.02.2013 23:00 -2,0 C -3,5 C 0,0 C 81 % 1006,9 hPa 0,0 l/m 0,00 h 0,00 h 0,0 UV-I 0 W/m 4,1 km/h (1 Bft)
12.02.2013 00:00 -2,5 C -4,0 C 0,0 C 83 % 1007,6 hPa 0,0 l/m 0,00 h 0,00 h 0,0 UV-I 0 W/m 1,7 km/h (1 Bft)
12.02.2013 01:00 -2,8 C -4,3 C 0,0 C 84 % 1008,0 hPa 0,0 l/m 0,00 h 0,00 h 0,0 UV-I 0 W/m 0,3 km/h (0 Bft)
12.02.2013 02:00 -3,1 C -4,5 C 0,0 C 86 % 1008,4 hPa 0,0 l/m 0,00 h 0,00 h 0,0 UV-I 0 W/m 0,2 km/h (0 Bft)
12.02.2013 03:00 -3,3 C -5,1 C 0,0 C 86 % 1008,6 hPa 0,0 l/m 0,00 h 0,00 h 0,0 UV-I 0 W/m 0,1 km/h (0 Bft)
12.02.2013 04:00 -4,0 C -5,9 C 0,0 C 87 % 1009,1 hPa 0,0 l/m 0,00 h 0,00 h 0,0 UV-I 0 W/m 0,0 km/h (0 Bft)
12.02.2013 05:00 -4,7 C -6,6 C 0,0 C 89 % 1009,5 hPa 0,0 l/m 0,00 h 0,00 h 0,0 UV-I 0 W/m 0,0 km/h (0 Bft)
12.02.2013 06:00 -5,0 C -5,5 C 0,0 C 91 % 1010,0 hPa 0,0 l/m 0,00 h 0,00 h 0,0 UV-I 0 W/m 0,1 km/h (0 Bft)
12.02.2013 07:00 -3,2 C -3,3 C 0,0 C 93 % 1010,5 hPa 0,0 l/m 0,00 h 0,00 h 0,0 UV-I 0 W/m 3,8 km/h (1 Bft)
12.02.2013 08:00 -1,4 C -2,2 C 0,0 C 83 % 1011,2 hPa 0,0 l/m 0,00 h 0,00 h 0,0 UV-I 10 W/m 4,5 km/h (1 Bft)
12.02.2013 09:00 -0,9 C -1,8 C 0,0 C 80 % 1012,1 hPa 0,0 l/m 0,00 h 0,00 h 0,0 UV-I 25 W/m 5,0 km/h (1 Bft)
12.02.2013 10:00 -0,6 C -1,3 C 0,0 C 78 % 1012,6 hPa 0,0 l/m 0,00 h 0,00 h 0,0 UV-I 49 W/m 3,8 km/h (1 Bft)
12.02.2013 11:00 -0,2 C -0,5 C 0,0 C 74 % 1013,2 hPa 0,0 l/m 0,00 h 0,00 h 0,0 UV-I 81 W/m 5,4 km/h (1 Bft)
12.02.2013 12:00 0,1 C -0,4 C 0,0 C 72 % 1013,6 hPa 0,0 l/m 0,00 h 0,00 h 0,0 UV-I 94 W/m 4,5 km/h (1 Bft)
12.02.2013 13:00 0,4 C -0,1 C 0,0 C 70 % 1013,9 hPa 0,0 l/m 0,00 h 0,00 h 0,0 UV-I 97 W/m 3,7 km/h (1 Bft)
12.02.2013 14:00 0,7 C 0,3 C 0,0 C 67 % 1014,2 hPa 0,0 l/m 0,00 h 0,00 h 0,0 UV-I 125 W/m 7,4 km/h (2 Bft)
12.02.2013 15:00 0,6 C -0,2 C 0,0 C 68 % 1014,5 hPa 0,0 l/m 0,00 h 0,00 h 0,0 UV-I 64 W/m 4,0 km/h (1 Bft)
12.02.2013 16:00 0,3 C -0,7 C 0,0 C 70 % 1014,8 hPa 0,0 l/m 0,00 h 0,00 h 0,0 UV-I 26 W/m 1,5 km/h (1 Bft)
12.02.2013 17:00 -0,1 C -1,4 C 0,0 C 71 % 1015,2 hPa 0,0 l/m 0,00 h 0,00 h 0,0 UV-I 10 W/m 0,9 km/h (0 Bft)
12.02.2013 18:00 -0,3 C -1,6 C 0,0 C 73 % 1015,9 hPa 0,0 l/m 0,00 h 0,00 h 0,0 UV-I 0 W/m 0,3 km/h (0 Bft)
12.02.2013 19:00 -0,4 C -1,6 C 0,0 C 73 % 1016,9 hPa 0,0 l/m 0,00 h 0,00 h 0,0 UV-I 0 W/m 1,0 km/h (0 Bft)
12.02.2013 20:00 -0,4 C -1,6 C 0,0 C 73 % 1017,4 hPa 0,0 l/m 0,00 h 0,00 h 0,0 UV-I 0 W/m 1,3 km/h (1 Bft)
12.02.2013 21:00 -0,4 C -1,8 C 0,0 C 73 % 1017,8 hPa 0,0 l/m 0,00 h 0,00 h 0,0 UV-I 0 W/m 1,8 km/h (1 Bft)
12.02.2013 22:00 -0,7 C -2,1 C 0,0 C 74 % 1018,1 hPa 0,0 l/m 0,00 h 0,00 h 0,0 UV-I 0 W/m 0,0 km/h (0 Bft)
12.02.2013 23:00 -0,8 C -2,1 C 0,0 C 76 % 1018,5 hPa 0,0 l/m 0,00 h 0,00 h 0,0 UV-I 0 W/m 0,0 km/h (0 Bft)
13.02.2013 00:00 -0,9 C -2,1 C 0,0 C 79 % 1019,1 hPa 0,0 l/m 0,00 h 0,00 h 0,0 UV-I 0 W/m 0,2 km/h (0 Bft)
13.02.2013 01:00 -0,9 C -2,1 C 0,0 C 79 % 1019,5 hPa 0,0 l/m 0,00 h 0,00 h 0,0 UV-I 0 W/m 0,4 km/h (0 Bft)
13.02.2013 02:00 -0,9 C -2,1 C 0,0 C 80 % 1019,8 hPa 0,0 l/m 0,00 h 0,00 h 0,0 UV-I 0 W/m 0,3 km/h (0 Bft)
13.02.2013 03:00 -1,0 C -2,3 C 0,0 C 80 % 1020,1 hPa 0,0 l/m 0,00 h 0,00 h 0,0 UV-I 0 W/m 0,1 km/h (0 Bft)
13.02.2013 04:00 -1,2 C -2,6 C 0,0 C 81 % 1020,5 hPa 0,0 l/m 0,00 h 0,00 h 0,0 UV-I 0 W/m 0,0 km/h (0 Bft)
13.02.2013 05:00 -1,4 C -2,7 C 0,0 C 83 % 1020,8 hPa 0,0 l/m 0,00 h 0,00 h 0,0 UV-I 0 W/m 0,0 km/h (0 Bft)
13.02.2013 06:00 -1,5 C -2,7 C 0,0 C 86 % 1021,6 hPa 0,0 l/m 0,00 h 0,00 h 0,0 UV-I 0 W/m 0,0 km/h (0 Bft)
13.02.2013 07:00 -1,5 C -2,7 C 0,0 C 88 % 1022,2 hPa 0,0 l/m 0,00 h 0,00 h 0,0 UV-I 0 W/m 0,3 km/h (0 Bft)
13.02.2013 08:00 -1,3 C -2,4 C 0,0 C 92 % 1022,9 hPa 0,0 l/m 0,00 h 0,00 h 0,0 UV-I 20 W/m 0,1 km/h (0 Bft)
13.02.2013 09:00 -1,1 C -1,7 C 0,0 C 93 % 1023,8 hPa 0,0 l/m 0,00 h 0,00 h 0,0 UV-I 49 W/m 0,4 km/h (0 Bft)
13.02.2013 10:00 -0,2 C -0,3 C 0,0 C 94 % 1024,1 hPa 0,0 l/m 0,48 h 0,00 h 0,0 UV-I 178 W/m 1,6 km/h (1 Bft)
13.02.2013 11:00 0,4 C -0,1 C 0,0 C 91 % 1024,7 hPa 0,0 l/m 0,00 h 0,00 h 0,0 UV-I 113 W/m 4,3 km/h (1 Bft)
13.02.2013 12:00 0,4 C -0,0 C 0,0 C 92 % 1024,9 hPa 0,0 l/m 0,00 h 0,00 h 0,0 UV-I 84 W/m 2,6 km/h (1 Bft)
13.02.2013 13:00 0,8 C 0,4 C 0,0 C 90 % 1025,0 hPa 0,0 l/m 0,00 h 0,00 h 0,0 UV-I 122 W/m 2,6 km/h (1 Bft)
13.02.2013 14:00 1,2 C 0,4 C 0,0 C 85 % 1025,0 hPa 0,0 l/m 0,53 h 0,00 h 0,0 UV-I 204 W/m 1,7 km/h (1 Bft)
13.02.2013 15:00 2,2 C 1,0 C 0,0 C 76 % 1025,1 hPa 0,0 l/m 0,57 h 0,00 h 0,0 UV-I 162 W/m 1,2 km/h (1 Bft)
13.02.2013 16:00 1,7 C 0,0 C 0,0 C 76 % 1025,3 hPa 0,0 l/m 0,00 h 0,00 h 0,0 UV-I 20 W/m 1,2 km/h (1 Bft)
13.02.2013 17:00 1,0 C -1,0 C 0,0 C 80 % 1025,5 hPa 0,2 l/m 0,00 h 0,00 h 0,0 UV-I 9 W/m 0,3 km/h (0 Bft)
13.02.2013 18:00 0,2 C -2,2 C 0,0 C 83 % 1025,7 hPa 0,0 l/m 0,00 h 0,00 h 0,0 UV-I 0 W/m 0,0 km/h (0 Bft)
13.02.2013 19:00 -1,0 C -3,5 C 0,0 C 84 % 1025,8 hPa 0,0 l/m 0,00 h 0,00 h 0,0 UV-I 0 W/m 0,0 km/h (0 Bft)
13.02.2013 20:00 -1,8 C -2,9 C 0,0 C 88 % 1025,6 hPa 0,0 l/m 0,00 h 0,00 h 0,0 UV-I 0 W/m 0,0 km/h (0 Bft)
13.02.2013 21:00 -1,5 C -2,9 C 0,0 C 92 % 1025,4 hPa 0,0 l/m 0,00 h 0,00 h 0,0 UV-I 0 W/m 0,0 km/h (0 Bft)
13.02.2013 22:00 -1,9 C -4,2 C 0,0 C 91 % 1025,3 hPa 0,0 l/m 0,00 h 0,00 h 0,0 UV-I 0 W/m 0,0 km/h (0 Bft)
13.02.2013 23:00 -2,4 C -4,3 C 0,0 C 89 % 1025,2 hPa 0,0 l/m 0,00 h 0,00 h 0,0 UV-I 0 W/m 0,9 km/h (0 Bft)
14.02.2013 00:00 -2,6 C -4,7 C 0,0 C 84 % 1025,1 hPa 0,0 l/m 0,00 h 0,00 h 0,0 UV-I 0 W/m 0,0 km/h (0 Bft)
14.02.2013 01:00 -3,0 C -4,7 C 0,0 C 83 % 1024,7 hPa 0,0 l/m 0,00 h 0,00 h 0,0 UV-I 0 W/m 1,5 km/h (1 Bft)
14.02.2013 02:00 -3,2 C -4,5 C 0,0 C 83 % 1024,3 hPa 0,0 l/m 0,00 h 0,00 h 0,0 UV-I 0 W/m 3,0 km/h (1 Bft)
14.02.2013 03:00 -3,2 C -4,8 C 0,0 C 83 % 1023,7 hPa 0,0 l/m 0,00 h 0,00 h 0,0 UV-I 0 W/m 0,9 km/h (0 Bft)
14.02.2013 04:00 -3,6 C -4,9 C 0,0 C 85 % 1022,8 hPa 0,0 l/m 0,00 h 0,00 h 0,0 UV-I 0 W/m 3,5 km/h (1 Bft)
14.02.2013 05:00 -3,5 C -4,5 C 0,0 C 85 % 1022,2 hPa 0,0 l/m 0,00 h 0,00 h 0,0 UV-I 0 W/m 13,2 km/h (3 Bft)
14.02.2013 06:00 -3,3 C -4,3 C 0,0 C 82 % 1021,3 hPa 0,0 l/m 0,00 h 0,00 h 0,0 UV-I 0 W/m 15,6 km/h (3 Bft)
14.02.2013 07:00 -3,3 C -4,3 C 0,0 C 83 % 1020,5 hPa 0,0 l/m 0,00 h 0,00 h 0,0 UV-I 7 W/m 18,4 km/h (3 Bft)
14.02.2013 08:00 -3,0 C -3,8 C 0,0 C 85 % 1020,0 hPa 0,0 l/m 0,00 h 0,00 h 0,0 UV-I 37 W/m 20,8 km/h (4 Bft)
14.02.2013 09:00 -2,0 C -2,4 C 0,0 C 83 % 1019,3 hPa 0,0 l/m 0,00 h 0,00 h 0,0 UV-I 92 W/m 27,7 km/h (4 Bft)
14.02.2013 10:00 -1,2 C -1,6 C 0,0 C 82 % 1018,3 hPa 0,0 l/m 0,00 h 0,00 h 0,0 UV-I 85 W/m 27,8 km/h (4 Bft)
14.02.2013 11:00 -0,5 C -0,9 C 0,0 C 79 % 1017,6 hPa 0,0 l/m 0,00 h 0,00 h 0,0 UV-I 91 W/m 28,4 km/h (4 Bft)
14.02.2013 12:00 0,1 C -0,3 C 0,0 C 77 % 1016,8 hPa 0,0 l/m 0,00 h 0,00 h 0,0 UV-I 95 W/m 27,7 km/h (4 Bft)
14.02.2013 13:00 0,6 C 0,1 C 0,0 C 75 % 1015,8 hPa 0,0 l/m 0,00 h 0,00 h 0,0 UV-I 90 W/m 27,5 km/h (4 Bft)
14.02.2013 14:00 0,8 C 0,1 C 0,0 C 74 % 1015,1 hPa 0,0 l/m 0,00 h 0,00 h 0,0 UV-I 59 W/m 26,5 km/h (4 Bft)
14.02.2013 15:00 0,8 C -0,1 C 0,0 C 74 % 1014,3 hPa 0,0 l/m 0,00 h 0,00 h 0,0 UV-I 37 W/m 27,6 km/h (4 Bft)
14.02.2013 16:00 -0,3 C -1,6 C 0,0 C 89 % 1013,6 hPa 0,4 l/m 0,00 h 0,00 h 0,0 UV-I 19 W/m 27,5 km/h (4 Bft)
14.02.2013 17:00 -0,7 C -1,7 C 0,0 C 93 % 1013,4 hPa 0,2 l/m 0,00 h 0,00 h 0,0 UV-I 7 W/m 25,4 km/h (4 Bft)
14.02.2013 18:00 -0,7 C -2,0 C 0,0 C 94 % 1013,5 hPa 0,2 l/m 0,00 h 0,00 h 0,0 UV-I 0 W/m 20,8 km/h (4 Bft)
14.02.2013 19:00 -0,9 C -2,1 C 0,0 C 96 % 1013,5 hPa 0,6 l/m 0,00 h 0,00 h 0,0 UV-I 0 W/m 20,5 km/h (4 Bft)
14.02.2013 20:00 -0,9 C -2,1 C 0,0 C 97 % 1013,3 hPa 0,2 l/m 0,00 h 0,00 h 0,0 UV-I 0 W/m 20,2 km/h (4 Bft)
14.02.2013 21:00 -0,9 C -2,1 C 0,0 C 98 % 1013,4 hPa 0,0 l/m 0,00 h 0,00 h 0,0 UV-I 0 W/m 18,7 km/h (3 Bft)
14.02.2013 22:00 -0,8 C -2,0 C 0,0 C 98 % 1013,6 hPa 0,0 l/m 0,00 h 0,00 h 0,0 UV-I 0 W/m 15,4 km/h (3 Bft)
14.02.2013 23:00 -0,7 C -1,9 C 0,0 C 98 % 1013,6 hPa 0,0 l/m 0,00 h 0,00 h 0,0 UV-I 0 W/m 12,5 km/h (3 Bft)
15.02.2013 00:00 -0,6 C -1,6 C 0,0 C 99 % 1013,7 hPa 0,0 l/m 0,00 h 0,00 h 0,0 UV-I 0 W/m 15,5 km/h (3 Bft)
15.02.2013 01:00 -0,6 C -1,6 C 0,0 C 99 % 1013,8 hPa 0,0 l/m 0,00 h 0,00 h 0,0 UV-I 0 W/m 12,0 km/h (2 Bft)
15.02.2013 02:00 -0,6 C -1,6 C 0,0 C 99 % 1013,9 hPa 0,0 l/m 0,00 h 0,00 h 0,0 UV-I 0 W/m 7,9 km/h (2 Bft)
15.02.2013 03:00 -0,5 C -1,6 C 0,0 C 99 % 1014,0 hPa 0,0 l/m 0,00 h 0,00 h 0,0 UV-I 0 W/m 5,3 km/h (1 Bft)
15.02.2013 04:00 -0,4 C -1,6 C 0,0 C 99 % 1014,1 hPa 0,0 l/m 0,00 h 0,00 h 0,0 UV-I 0 W/m 7,3 km/h (2 Bft)
15.02.2013 05:00 -0,3 C -1,6 C 0,0 C 99 % 1014,4 hPa 0,0 l/m 0,00 h 0,00 h 0,0 UV-I 0 W/m 7,5 km/h (2 Bft)
15.02.2013 06:00 -0,2 C -1,0 C 0,0 C 99 % 1014,9 hPa 0,0 l/m 0,00 h 0,00 h 0,0 UV-I 0 W/m 2,3 km/h (1 Bft)
15.02.2013 07:00 -0,1 C -1,0 C 0,0 C 99 % 1015,4 hPa 0,2 l/m 0,00 h 0,00 h 0,0 UV-I 0 W/m 5,1 km/h (1 Bft)
15.02.2013 08:00 0,2 C -1,0 C 0,0 C 99 % 1015,9 hPa 0,8 l/m 0,00 h 0,00 h 0,0 UV-I 11 W/m 5,3 km/h (1 Bft)
15.02.2013 09:00 0,5 C -0,4 C 0,0 C 100 % 1016,5 hPa 0,0 l/m 0,00 h 0,00 h 0,0 UV-I 41 W/m 0,4 km/h (0 Bft)
15.02.2013 10:00 1,4 C 0,5 C 0,0 C 100 % 1016,8 hPa 0,0 l/m 0,00 h 0,00 h 0,0 UV-I 56 W/m 1,6 km/h (1 Bft)
15.02.2013 11:00 2,2 C 1,2 C 0,0 C 100 % 1017,5 hPa 0,0 l/m 0,00 h 0,00 h 0,0 UV-I 59 W/m 1,0 km/h (0 Bft)
15.02.2013 12:00 2,8 C 1,7 C 0,0 C 100 % 1017,8 hPa 0,0 l/m 0,00 h 0,00 h 0,0 UV-I 60 W/m 0,3 km/h (0 Bft)
15.02.2013 13:00 3,3 C 2,2 C 0,0 C 100 % 1018,0 hPa 0,0 l/m 0,00 h 0,00 h 0,0 UV-I 73 W/m 1,2 km/h (1 Bft)
15.02.2013 14:00 3,6 C 2,3 C 0,0 C 100 % 1018,4 hPa 0,0 l/m 0,00 h 0,00 h 0,0 UV-I 46 W/m 0,3 km/h (0 Bft)
15.02.2013 15:00 3,9 C 2,7 C 0,0 C 100 % 1018,7 hPa 0,0 l/m 0,00 h 0,00 h 0,0 UV-I 41 W/m 0,4 km/h (0 Bft)
15.02.2013 16:00 4,0 C 2,8 C 0,0 C 100 % 1018,9 hPa 0,0 l/m 0,00 h 0,00 h 0,0 UV-I 20 W/m 0,1 km/h (0 Bft)
15.02.2013 17:00 4,0 C 2,5 C 0,0 C 100 % 1019,4 hPa 0,0 l/m 0,00 h 0,00 h 0,0 UV-I 7 W/m 0,6 km/h (0 Bft)
15.02.2013 18:00 3,8 C 2,3 C 0,0 C 100 % 1020,1 hPa 0,0 l/m 0,00 h 0,00 h 0,0 UV-I 0 W/m 0,0 km/h (0 Bft)
15.02.2013 19:00 3,7 C 2,3 C 0,0 C 100 % 1020,5 hPa 0,0 l/m 0,00 h 0,00 h 0,0 UV-I 0 W/m 1,0 km/h (0 Bft)
15.02.2013 20:00 3,7 C 2,2 C 0,0 C 100 % 1020,9 hPa 0,0 l/m 0,00 h 0,00 h 0,0 UV-I 0 W/m 1,2 km/h (1 Bft)
15.02.2013 21:00 3,4 C 1,8 C 0,0 C 100 % 1021,2 hPa 0,0 l/m 0,00 h 0,00 h 0,0 UV-I 0 W/m 0,8 km/h (0 Bft)
15.02.2013 22:00 3,3 C 1,8 C 0,0 C 100 % 1021,3 hPa 0,0 l/m 0,00 h 0,00 h 0,0 UV-I 0 W/m 0,9 km/h (0 Bft)
15.02.2013 23:00 3,2 C 1,8 C 0,0 C 100 % 1021,5 hPa 0,0 l/m 0,00 h 0,00 h 0,0 UV-I 0 W/m 1,0 km/h (0 Bft)
16.02.2013 00:00 3,1 C 1,7 C 0,0 C 100 % 1021,6 hPa 0,0 l/m 0,00 h 0,00 h 0,0 UV-I 0 W/m 0,0 km/h (0 Bft)
16.02.2013 01:00 3,0 C 1,8 C 0,0 C 100 % 1021,7 hPa 0,0 l/m 0,00 h 0,00 h 0,0 UV-I 0 W/m 0,0 km/h (0 Bft)
16.02.2013 02:00 3,1 C 1,8 C 0,0 C 100 % 1021,8 hPa 0,0 l/m 0,00 h 0,00 h 0,0 UV-I 0 W/m 0,2 km/h (0 Bft)
16.02.2013 03:00 3,1 C 1,8 C 0,0 C 100 % 1021,7 hPa 0,0 l/m 0,00 h 0,00 h 0,0 UV-I 0 W/m 0,1 km/h (0 Bft)
16.02.2013 04:00 3,2 C 2,1 C 0,0 C 100 % 1021,7 hPa 0,0 l/m 0,00 h 0,00 h 0,0 UV-I 0 W/m 0,3 km/h (0 Bft)
16.02.2013 05:00 3,2 C 1,9 C 0,0 C 100 % 1021,9 hPa 0,0 l/m 0,00 h 0,00 h 0,0 UV-I 0 W/m 0,1 km/h (0 Bft)
16.02.2013 06:00 3,2 C 1,9 C 0,0 C 100 % 1022,1 hPa 0,0 l/m 0,00 h 0,00 h 0,0 UV-I 0 W/m 0,0 km/h (0 Bft)
16.02.2013 07:00 3,2 C 2,0 C 0,0 C 100 % 1022,4 hPa 0,0 l/m 0,00 h 0,00 h 0,0 UV-I 0 W/m 0,2 km/h (0 Bft)
16.02.2013 08:00 3,2 C 2,2 C 0,0 C 100 % 1022,8 hPa 0,0 l/m 0,00 h 0,00 h 0,0 UV-I 17 W/m 0,3 km/h (0 Bft)
16.02.2013 09:00 3,6 C 3,1 C 0,0 C 100 % 1023,0 hPa 0,0 l/m 0,03 h 0,00 h 0,0 UV-I 76 W/m 1,5 km/h (1 Bft)
16.02.2013 10:00 4,2 C 3,5 C 0,0 C 100 % 1023,4 hPa 0,0 l/m 0,00 h 0,00 h 0,0 UV-I 59 W/m 0,9 km/h (0 Bft)
16.02.2013 11:00 4,8 C 4,5 C 0,0 C 100 % 1023,8 hPa 0,0 l/m 0,00 h 0,00 h 0,0 UV-I 126 W/m 1,9 km/h (1 Bft)
16.02.2013 12:00 5,6 C 5,5 C 0,0 C 100 % 1023,6 hPa 0,0 l/m 0,00 h 0,00 h 0,0 UV-I 170 W/m 2,1 km/h (1 Bft)
16.02.2013 13:00 6,3 C 6,7 C 0,0 C 100 % 1023,3 hPa 0,2 l/m 0,10 h 0,00 h 0,0 UV-I 181 W/m 5,0 km/h (1 Bft)
16.02.2013 14:00 6,9 C 7,1 C 10,8 C 97 % 1023,0 hPa 0,0 l/m 0,23 h 0,07 h 0,0 UV-I 173 W/m 4,3 km/h (1 Bft)
16.02.2013 15:00 7,3 C 6,6 C 10,0 C 92 % 1023,1 hPa 0,0 l/m 0,00 h 0,00 h 0,0 UV-I 97 W/m 3,8 km/h (1 Bft)
16.02.2013 16:00 7,0 C 5,9 C 10,0 C 91 % 1023,2 hPa 0,0 l/m 0,00 h 0,00 h 0,0 UV-I 51 W/m 0,3 km/h (0 Bft)
16.02.2013 17:00 6,5 C 5,0 C 11,3 C 92 % 1023,2 hPa 0,0 l/m 0,00 h 0,03 h 0,0 UV-I 14 W/m 0,3 km/h (0 Bft)
16.02.2013 18:00 5,8 C 4,0 C 11,2 C 94 % 1023,5 hPa 0,0 l/m 0,00 h 0,03 h 0,0 UV-I 0 W/m 0,0 km/h (0 Bft)
16.02.2013 19:00 5,2 C 2,8 C 11,2 C 94 % 1023,8 hPa 0,0 l/m 0,00 h 0,03 h 0,0 UV-I 0 W/m 0,0 km/h (0 Bft)
16.02.2013 20:00 4,5 C 2,2 C 10,0 C 95 % 1023,8 hPa 0,0 l/m 0,00 h 0,00 h 0,0 UV-I 0 W/m 0,0 km/h (0 Bft)
16.02.2013 21:00 3,6 C 1,6 C 11,2 C 95 % 1023,8 hPa 0,0 l/m 0,00 h 0,03 h 0,0 UV-I 0 W/m 0,0 km/h (0 Bft)
16.02.2013 22:00 3,4 C 2,2 C 10,0 C 96 % 1023,9 hPa 0,0 l/m 0,00 h 0,00 h 0,0 UV-I 0 W/m 0,0 km/h (0 Bft)
16.02.2013 23:00 3,5 C 2,2 C 10,0 C 97 % 1023,9 hPa 0,0 l/m 0,00 h 0,00 h 0,0 UV-I 0 W/m 0,0 km/h (0 Bft)
17.02.2013 00:00 3,5 C 2,2 C 10,0 C 98 % 1024,0 hPa 0,0 l/m 0,00 h 0,00 h 0,0 UV-I 0 W/m 0,1 km/h (0 Bft)
17.02.2013 01:00 3,5 C 2,2 C 10,0 C 98 % 1024,0 hPa 0,0 l/m 0,00 h 0,00 h 0,0 UV-I 0 W/m 0,0 km/h (0 Bft)
17.02.2013 02:00 3,4 C 2,3 C 10,0 C 98 % 1023,9 hPa 0,0 l/m 0,00 h 0,00 h 0,0 UV-I 0 W/m 0,0 km/h (0 Bft)
17.02.2013 03:00 3,3 C 2,2 C 10,0 C 99 % 1023,7 hPa 0,0 l/m 0,00 h 0,00 h 0,0 UV-I 0 W/m 0,0 km/h (0 Bft)
17.02.2013 04:00 3,4 C 2,3 C 10,0 C 99 % 1023,6 hPa 0,0 l/m 0,00 h 0,00 h 0,0 UV-I 0 W/m 1,1 km/h (1 Bft)
17.02.2013 05:00 3,4 C 2,3 C 10,0 C 99 % 1023,6 hPa 0,0 l/m 0,00 h 0,00 h 0,0 UV-I 0 W/m 0,1 km/h (0 Bft)
17.02.2013 06:00 3,3 C 2,3 C 10,0 C 99 % 1023,6 hPa 0,0 l/m 0,00 h 0,00 h 0,0 UV-I 0 W/m 0,2 km/h (0 Bft)
17.02.2013 07:00 3,3 C 2,3 C 10,0 C 100 % 1023,7 hPa 0,0 l/m 0,00 h 0,00 h 0,0 UV-I 5 W/m 0,4 km/h (0 Bft)
17.02.2013 08:00 3,1 C 2,3 C 10,0 C 100 % 1024,1 hPa 0,0 l/m 0,00 h 0,00 h 0,0 UV-I 18 W/m 0,6 km/h (0 Bft)
17.02.2013 09:00 3,1 C 2,4 C 10,0 C 100 % 1024,0 hPa 0,0 l/m 0,00 h 0,00 h 0,0 UV-I 42 W/m 1,7 km/h (1 Bft)
17.02.2013 10:00 3,2 C 2,7 C 10,0 C 100 % 1024,0 hPa 0,0 l/m 0,00 h 0,00 h 0,0 UV-I 52 W/m 0,3 km/h (0 Bft)
17.02.2013 11:00 3,9 C 4,0 C 10,0 C 100 % 1024,1 hPa 0,0 l/m 0,00 h 0,00 h 0,0 UV-I 120 W/m 1,6 km/h (1 Bft)
17.02.2013 12:00 4,8 C 5,1 C 10,0 C 98 % 1023,9 hPa 0,0 l/m 0,13 h 0,00 h 0,0 UV-I 208 W/m 6,9 km/h (2 Bft)
17.02.2013 13:00 5,8 C 5,8 C 10,0 C 92 % 1023,4 hPa 0,0 l/m 0,17 h 0,00 h 0,0 UV-I 186 W/m 5,4 km/h (1 Bft)
17.02.2013 14:00 6,3 C 5,5 C 10,0 C 88 % 1022,9 hPa 0,0 l/m 0,23 h 0,00 h 0,0 UV-I 161 W/m 4,2 km/h (1 Bft)
17.02.2013 15:00 6,5 C 5,5 C 10,0 C 86 % 1022,5 hPa 0,0 l/m 0,40 h 0,00 h 0,0 UV-I 168 W/m 5,1 km/h (1 Bft)
17.02.2013 16:00 6,5 C 5,0 C 10,0 C 86 % 1022,3 hPa 0,0 l/m 0,23 h 0,00 h 0,0 UV-I 91 W/m 4,9 km/h (1 Bft)
17.02.2013 17:00 5,6 C 3,2 C 10,0 C 87 % 1022,1 hPa 0,0 l/m 0,00 h 0,00 h 0,0 UV-I 20 W/m 0,4 km/h (0 Bft)
17.02.2013 18:00 4,0 C 0,7 C 10,0 C 88 % 1022,1 hPa 0,0 l/m 0,00 h 0,00 h 0,0 UV-I 0 W/m 0,0 km/h (0 Bft)
17.02.2013 19:00 3,1 C 1,5 C 10,0 C 92 % 1022,3 hPa 0,0 l/m 0,00 h 0,00 h 0,0 UV-I 0 W/m 0,0 km/h (0 Bft)
17.02.2013 20:00 3,5 C 2,3 C 10,0 C 94 % 1022,2 hPa 0,0 l/m 0,00 h 0,00 h 0,0 UV-I 0 W/m 0,0 km/h (0 Bft)
17.02.2013 21:00 3,3 C 0,8 C 10,0 C 93 % 1022,0 hPa 0,0 l/m 0,00 h 0,00 h 0,0 UV-I 0 W/m 0,0 km/h (0 Bft)
17.02.2013 22:00 1,7 C -1,4 C 10,0 C 91 % 1022,2 hPa 0,0 l/m 0,00 h 0,00 h 0,0 UV-I 0 W/m 0,0 km/h (0 Bft)
17.02.2013 23:00 0,2 C -2,6 C 10,0 C 92 % 1022,3 hPa 0,0 l/m 0,00 h 0,00 h 0,0 UV-I 0 W/m 0,0 km/h (0 Bft)
Min-Datum _ 12.02.13 12.02.13 11.02.13 11.02.13 11.02.13 - - - - - 11.02.13
_ Min-Zeit 06:12 05:00 00:00 15:12 05:32 - - - - - 06:04
Minimum _ -5,2 C -6,6 C 0,0 C 58 % 1000,3 hPa - - - - - 0,0 km/h (0 Bft)
Max-Datum _ 16.02.13 16.02.13 16.02.13 15.02.13 13.02.13 15.02.13 11.02.13 16.02.13 11.02.13 16.02.13 14.02.13
_ Max-Zeit 15:04 14:42 14:24 08:44 18:50 08:04 10:34 14:24 00:00 14:46 13:32
Maximum _ 7,4 C 7,9 C 46,7 C 100 % 1025,9 hPa 0,8 l/m 0,03 h 0,03 h 0,0 UV-I 434 W/m 51,5 km/h
SO (7 Bft)
Durchschnitt _ 0,9 C -0,3 C 2,1 C 87 % 1017,2 hPa #3,0 l/m #4:23 h #12 min. 0,0 UV-I 80 W/m 5,9 km/h (2 Bft)
© 2013 W. Hausmann